Regional Weather Roundup
Issued by NWS

Home | Current Version | Previous Version | Text Only | Print | Product List | Glossary On
Versions: 1 2 3 4 5 6 7 8 9 10 11 12 13 14 15 16 17 18 19 20 21 22 23 24 25 26 27 28 29 30 31 32 33 34 35 36 37 38 39 40 41 42 43 44 45 46 47 48 49 50
000
ASUS44 KFWD 301615
RWRTX
NORTH TEXAS HOURLY WEATHER ROUNDUP
NATIONAL WEATHER SERVICE FORT WORTH TX
1100 AM CDT SAT MAY 30 2015

NOTE: "FAIR" INDICATES FEW OR NO CLOUDS BELOW 12,000 FEET WITH NO
SIGNIFICANT WEATHER AND/OR OBSTRUCTIONS TO VISIBILITY.

TXZ118-119-301700-
DALLAS/FORT WORTH METROPLEX

CITY           SKY/WX    TMP DP  RH WIND       PRES   REMARKS
DFW AIRPORT    CLOUDY    70  66  87 NE6       30.03R
DALLAS LOVE    CLOUDY    72  65  78 VRB7      30.01S
FTW MEACHAM      N/A    N/A N/A N/A MISG      30.07R
DAL-EXECUTIVE  CLOUDY    69  65  86 E7        30.02R
FTW-ALLIANCE   CLOUDY    69  67  93 NW13      30.07R
FTW-NAS-JRB    CLOUDY    72  68  87 NW13      30.10R
FTW-SPINKS     PTSUNNY   72  66  83 CALM      30.08R
ARLINGTON      CLOUDY    72  64  76 E5        30.04R
GRAND PRAIRIE  SUNNY     72  66  83 E6        30.05R
MESQUITE       SUNNY     72  66  83 NE7       30.02F
LANCASTER      CLOUDY    69  65  85 E3        30.03S
$$

TXZ091>094-102>105-117-120-121-131>134-301700-
NORTH CENTRAL TEXAS

CITY           SKY/WX    TMP DP  RH WIND       PRES   REMARKS
SHRMAN/DENISON DRIZZLE   69  69 100 NW8       30.11R
GAINESVILLE    RAIN      67  65  93 NW13G21   30.13R
BOWIE          HVY RAIN  64  64 100 NW9       30.15R
BRIDGEPORT     DRIZZLE   67  67 100 NW10      30.14R
DECATUR        CLOUDY    67  66  99 NW8       30.13R
DENTON         LGT RAIN  68  66  93 NW15      30.09R
MCKINNEY       CLOUDY    69  67  93 NE10      30.02F
GREENVILLE     LGT RAIN  68  66  94 NE6       30.03F
ROCKWALL       CLOUDY    70  68  92 E9        30.01F
TERRELL        CLOUDY    70  66  87 NE13      30.01F
WAXAHACHIE     CLOUDY    69  67  96 E6        30.04S
CLEBURNE       CLOUDY    70  68  94 CALM      30.09R
GRANBURY       PTSUNNY   73  65  78 NW7       30.11R
$$

TXZ083>090-098>101-113>116-127>130-139>142-154-155-301700-
WESTERN NORTH TEXAS

CITY           SKY/WX    TMP DP  RH WIND       PRES   REMARKS
WICHITA FALLS  CLOUDY    64  59  83 NE18      30.16R
WF-KICKAPOO    CLOUDY    65  61  85 N15       30.17R
VERNON         FAIR      70  54  56 NE13      30.19R
ABILENE        PTSUNNY   71  62  73 NW17      30.15F
ABILENE-DYESS  CLOUDY    68  59  73 N17G24    30.15S
BRECKENRIDGE   PTSUNNY   74  63  68 N12       30.13R
GRAHAM         RAIN      65  63  96 N10       30.14R
MINERAL WELLS  PTSUNNY   71  64  78 NW20      30.09R
STEPHENVILLE   MOSUNNY   74  62  66 N7        30.12S
COMANCHE       PTSUNNY   73  66  78 N10       30.11S
BROWNWOOD      MOSUNNY   75  63  64 N12G17    30.11S
COLEMAN        MOSUNNY   75  64  69 N15       30.13R
BRADY          SUNNY     73  63  68 NW9       30.11F
$$

TXZ143>147-156>162-174-175-301700-
CENTRAL TEXAS

CITY           SKY/WX    TMP DP  RH WIND       PRES   REMARKS
WACO           PTSUNNY   73  65  75 NE8       30.06R
WACO-TSTC      SUNNY     72  66  83 NE6       30.05R
WACO-MCGREGOR  MOSUNNY   72  66  83 N8        30.07F
HILLSBORO      CLOUDY    69  66  88 NE6       30.04F
CORSICANA      CLOUDY    71  65  81 NE6       30.03F
MEXIA          PTSUNNY   71  67  85 E8        30.02F
HEARNE         PTSUNNY   77  67  72 E7        30.02R
CAMERON        PTSUNNY   77  68  72 N3        30.05R
TEMPLE         MOSUNNY   79  64  61 N12       30.06R
KILLEEN        SUNNY     75  64  69 NE5       30.06F
KILLEEN-SKYLRK SUNNY     75  63  64 N6        30.07F
FORT HOOD      SUNNY     74  65  72 E6        30.06S
GATESVILLE     MOSUNNY   73  64  73 CALM      30.09F
LAMPASAS       SUNNY     76  67  75 CALM      30.07S
$$

TXZ095>097-106>112-122>126-135>138-148>153-164>167-301700-
EAST TEXAS

CITY           SKY/WX    TMP DP  RH WIND       PRES   REMARKS
PARIS          CLOUDY    66  63  88 W8        30.11R THUNDER
SULPHUR SPRNGS TSTM      68  67  98 CALM      30.11F
MOUNT PLEASANT CLOUDY    67  65  93 SW8       30.13R
GILMER         CLOUDY   N/A N/A N/A NW9       30.07F
MINEOLA        TSTM      66  66 100 CALM      30.08F
TYLER          LGT RAIN  68  68 100 N12       30.05F
LONGVIEW       LGT RAIN  70  68  93 NE5       30.08R
MARSHALL       CLOUDY    70  67  91 N9        30.11R
ATHENS         CLOUDY    68  64  88 NE3       30.01F
PALESTINE      CLOUDY    69  66  90 NE7       30.05F
JACKSONVILLE   CLOUDY    70  64  83 N7        30.09F
NACOGDOCHES    CLOUDY    73  66  78 N12       30.08F
LUFKIN         CLOUDY    73  66  78 N10       30.08S
$$

SUPPLEMENTAL OBSERVATIONS (CENTRAL)

CITY           SKY/WX    TMP DP  RH WIND       PRES   REMARKS
LAKE TEXOMA      N/A     70  66  88 NW5         N/A
PAT MAYSE LAKE   N/A     68  66  94 S9          N/A
GREENVILLE       N/A     68  64  88 NE9         N/A
CEDAR HILL       N/A     72  66  83 N1G12       N/A
ATHENS           N/A     70  64  83 E7          N/A
LAKE LIMESTONE   N/A     75  64  69 E7G22       N/A
MCGREGOR         N/A     75  66  73 NE7         N/A
TEMPLE           N/A     79  64  61 NW2G10      N/A
$$

SUPPLEMENTAL OBSERVATIONS (WEST)

CITY           SKY/WX    TMP DP  RH WIND       PRES   REMARKS
MILLERS CREEK    N/A     64  59  82 N9G17       N/A
POSSUM KINGDOM   N/A     72  64  78 N12G22      N/A
GRANBURY         N/A     72  64  78 N8          N/A
COMANCHE         N/A     73  63  68 N13         N/A
HAMBY            N/A     72  63  73 N10G18      N/A
IVIE RESERVOIR   N/A    N/A N/A N/A N13         N/A
COLORADO BEND    N/A     75  63  64 NW6         N/A
$$

SUPPLEMENTAL OBSERVATIONS (EAST)

CITY           SKY/WX    TMP DP  RH WIND       PRES   REMARKS
CLARKSVILLE      N/A     70  68  94 CALM        N/A
TEXARKANA        N/A     75  68  78 W6          N/A
LINDEN           N/A     70  66  88 W6          N/A
CADDO LAKE       N/A     66  64  94 NW6G16      N/A
GILMER           N/A     66  63  88 N6          N/A
HENDERSON        N/A     68  64  88 NE2         N/A
LUFKIN           N/A     75  64  69 MISG        N/A
N SABINE NF      N/A     81  70  69 MISG        N/A
S SABINE NF      N/A     82  72  69 CALM        N/A
$$

SUPPLEMENTAL OBSERVATIONS ARE A COLLECTION OF AUTOMATED INSTRUMENTS
THAT ARE MAINTAINED BY A VARIETY OF FEDERAL AND STATE AGENCIES.
CERTAIN ELEMENTS...SUCH AS HUMIDITY VALUES AND SUSTAINED WIND
SPEEDS...MAY BE APPROXIMATED.



USA.gov is the U.S. government's official web portal to all federal, state and local government web resources and services.